IRIDIUM 33 DEB, 35618

Orbit data source: Space-Track

IRIDIUM 33 DEB, 35618 is space debris in LEO originally from a launch on Sun, 14 Sep 1997 UTC launched from the Tyuratam Missile And Space Complex (TTMTR). The debris from Iridium 33, an American commercial communications satellite, has been tracked extensively since its accidental collision with the defunct Russian satellite Cosmos 2251 in 2009. This event, occurring at high speed in low Earth orbit (LEO), generated thousands of pieces of space debris, significantly increasing the risk of further collisions. The Iridium 33 debris cloud has impacted space traffic management and orbital debris mitigation strategies, making it a subject of ongoing study in space situational awareness.

Loading next visibility...
Identifier
35618, 1997-051QQ
Orbit
LEO
Country
Flag of USUS
Related business
Manufacturer
Unknown
Mission
Spacecraft
Bus & Motor
Unknown
Mass
Unknown
Launch date (UTC)
1997-09-14 (28 years ago)
Launch vehicle
Unknown
Launch site
Tyuratam Missile And Space Complex (TTMTR)
Object type
Payload
Rocket body
Debris
Shape & HBR
Unknown shape, 0.1 m
Radar Cross Section
Small (<0.1 m²)

Expand to show TLE details & history
Last TLE update: 6 days ago

TLE from 6 days ago
0 IRIDIUM 33 DEB
1 35618U 97051QQ  25347.79629239  .00002341  00000-0  56786-3 0  9998
2 35618  86.3427 353.0427 0028889  17.6332 342.5869 14.52305973654096
Epoch: 2025-12-13T19:06Z
TLE epoch observation values (Epoch: 2025-12-13T19:06:39.662Z)
Latitude
-0.00007°
Longitude
-16.34098°
Altitude
701.643 km
Speed
7.515 km/s
True Right ascension
23h 32m 10s
True Declination
0° 00' 00"
Sunlit
Object was in daylight at epoch
Visualization orbit readout
Latitude
Unknown
Longitude
Unknown
Altitude
Unknown
Speed
Unknown
Apparent Right ascension
Unknown
Apparent Declination
Unknown
Sunlit
N/A
Visualization observer readout
Local Sidereal Time
01:22:49
Azimuth
Unknown
Elevation
Unknown
Doppler factor
Unknown
Orbital elements
Apogee altitude
735.559 km
Perigee altitude
694.575 km
Semi-major axis
7,093.204 km
Eccentricity
0.00289
Inclination
86.3427°
RAAN
353.0427°
Arg. of periapsis
17.6332°
True anomaly
342.48749°
Mean anomaly
342.5869°
Eccentric anomaly
342.53723°
Mean motion
3.63312 °/min
Orbital period
99.09 mins
BSTAR
0.00056786
Loading maneuver chart data...
Computing Atmospheric mass density...
Loading historical data...
Loading historical data...
Loading historical data...
Loading historical data...
Loading historical data...
Loading historical data...
Loading historical data...

Documentation

Showing up to 5 results
|